EWS-G3 (GOES 14)

Last updated on Tue Sep 22 2026 00:02:53 GMT+0000 (Coordinated Universal Time)

1 35491U 09033A 26264.50458409 -.00000077 00000+0 00000+0 0 9995 2 35491 1.9311 81.6729 0002209 94.0359 84.6510 1.00070884 7554
UTC large
Height (km)
Speed (km/s)
/
Latitude / Longitude
Inclination (degrees)
Orbital Period (minutes)
Azimuth
Elevation
Range (km)
Doppler Factor

Next 0 passes for location: London (51.5072 / 0.1276)

No passes found over London.
EWS-G3 (GOES 14)